Location: Arrington
(35.8681°N, 86.7092°W)
Time: 07:49:35
(UTC+00:00)

NOAA 11 - Pass Details

Date: 23 November 2019
Orbit: 834 x 849 km, 98.4° (Epoch: 15 December)

Event Time Altitude Azimuth Distance (km) Brightness Sun altitude
Rises 00:46:28 0° 169° (S) 3,365 7.3 -26.2°
Reaches altitude 10° 00:48:48 10° 171° (S) 2,435 6.6 -26.7°
Maximum altitude 00:54:12 78° 257° (WSW) 856 4.2 -27.8°
Drops below altitude 10° 00:59:40 10° 344° (NNW) 2,455 6.7 -28.9°
Sets 01:02:02 0° 346° (NNW) 3,395 7.5 -29.4°
